Wind_Speed
33 36 36 35 36 37 41 41 41 42 37 32 39 44 47 38 34 39 53 48 44 45 45 45 42 41 37 35 34 32 31 31 30 30 31 31 32 34 34 35 34 34 32 31
35 37 34 35 37 36 39 40 45 28 24 31 34 42 43 40 44 41 49 44 40 38 41 42 40 37 33 35 35 32 33 32 31 31 31 31 32 35 36 36 36 37 35 35
33 33 31 33 34 35 37 40 42 41 34 37 36 41 47 37 41 47 48 49 41 40 42 40 41 36 34 38 35 36 35 34 34 34 33 33 34 35 37 39 39 40 39 39
31 30 29 28 37 36 36 41 41 45 44 40 34 51 47 42 41 45 48 48 41 41 42 41 40 41 39 39 38 38 38 38 38 37 37 36 36 37 38 40 41 42 41 41
28 29 28 35 35 38 41 36 36 37 40 42 41 37 43 37 41 42 44 45 43 40 40 43 43 43 42 43 41 40 41 41 41 40 40 40 40 40 41 41 42 42 41 41
33 30 25 30 31 40 35 33 35 36 31 42 46 46 46 36 35 33 41 43 39 41 40 43 43 46 47 46 46 44 42 43 44 43 43 42 43 43 42 43 43 43 43 43
32 35 34 35 36 33 31 38 38 37 39 47 41 46 49 39 22 29 32 38 39 41 40 43 44 46 49 48 46 44 43 46 46 43 46 45 44 43 43 44 45 45 45 46
32 34 34 34 38 34 31 38 39 43 41 41 37 42 47 39 35 35 36 37 42 48 44 41 43 45 48 51 50 47 46 45 45 45 47 46 45 45 46 46 46 46 46 46
30 39 27 22 24 31 34 36 34 32 28 25 26 26 23 29 36 44 46 47 52 57 51 45 42 41 43 49 52 51 46 46 44 46 48 46 46 47 48 48 48 48 48 49
44 44 34 36 25 28 35 33 31 31 32 37 36 26 19 36 39 45 49 51 55 56 54 49 48 48 48 48 50 52 47 48 48 48 47 49 49 50 51 50 50 51 51 51
50 48 41 40 44 32 33 43 39 37 32 34 37 37 27 33 34 35 38 45 48 55 53 53 50 47 44 47 48 49 47 48 48 48 48 49 48 48 48 49 50 51 52 52
58 53 51 48 44 46 30 41 31 40 48 34 28 35 24 38 34 30 18 31 43 50 50 47 44 41 41 42 43 42 45 46 46 45 46 46 46 46 47 48 49 51 51 53
60 61 57 54 53 51 52 40 36 42 42 48 49 42 32 32 31 32 35 37 36 34 35 37 39 37 40 41 42 42 42 43 44 43 44 44 44 44 46 46 46 47 48 51
68 65 64 62 57 48 51 53 52 46 50 51 48 46 47 35 30 34 32 29 40 48 47 37 39 39 37 38 38 37 38 39 40 41 40 38 38 40 42 44 47 50 52 53
74 73 74 72 68 63 59 57 58 58 56 47 46 43 32 45 43 46 38 38 42 40 48 42 40 47 43 36 35 36 38 38 37 38 40 40 43 44 45 45 47 49 50 52
64 74 76 78 76 73 70 64 64 64 53 73 54 49 47 35 41 50 62 57 46 48 43 33 20 28 43 40 40 40 39 38 40 41 40 40 41 42 43 45 48 50 51 54
66 71 73 75 72 76 79 71 69 72 71 49 61 59 57 58 59 42 41 27 33 29 36 29 25 30 36 38 40 40 38 40 38 38 41 40 42 44 45 47 48 51 53 56
63 70 69 74 71 75 74 73 72 76 75 71 65 61 65 66 66 72 69 46 47 57 54 56 45 50 49 44 43 43 42 43 40 42 44 44 45 45 46 48 51 54 57 59
23 41 65 72 74 70 71 72 70 71 77 80 71 68 69 74 76 72 69 76 71 64 60 63 64 63 54 50 47 46 46 45 45 46 47 47 45 46 49 51 54 56 59 61
22 23 30 35 47 53 61 62 66 67 76 73 81 85 79 76 81 77 79 79 76 73 69 69 67 62 56 52 49 49 51 51 46 49 50 46 46 50 52 55 55 60 64 65
15 27 27 31 39 39 34 40 49 52 59 67 63 66 75 87 89 86 86 85 81 72 65 63 60 57 53 49 48 48 49 48 46 50 48 49 52 55 56 55 59 64 66 65
20 21 25 34 43 46 33 32 40 45 43 57 68 72 74 78 78 77 82 78 78 74 71 66 62 59 56 54 51 50 48 48 49 50 52 54 55 55 55 59 63 64 64 63
27 24 22 26 27 33 38 39 33 35 47 39 48 46 59 70 73 71 70 74 74 68 65 63 62 57 55 53 51 51 50 49 50 52 52 53 53 54 58 62 63 61 61 59
24 27 24 37 25 25 27 42 46 38 30 48 45 45 48 56 59 63 71 73 71 68 63 61 59 57 55 52 51 51 50 47 49 49 50 50 52 56 59 59 59 58 53 54
25 28 32 33 34 30 28 31 44 51 49 38 36 42 37 38 46 54 62 72 70 68 61 55 53 53 54 52 47 47 46 46 47 47 48 49 51 53 54 57 56 50 50 46
19 23 29 22 24 30 28 27 27 45 54 47 40 43 37 39 42 46 49 48 58 66 63 55 53 52 50 47 47 46 46 46 45 44 45 48 50 50 49 46 44 39 37 38
Wind_Direction
237 239 236 238 239 233 237 239 241 244 245 242 251 253 250 243 230 262 258 255 254 258 261 261 260 261 258 251 247 248 254 260 267 273 276 277 276 278 280 280 279 278 279 281
239 238 239 237 237 235 234 236 238 229 242 228 245 257 252 240 236 233 254 259 260 258 256 259 258 256 248 240 243 248 253 260 268 274 276 277 276 277 278 280 280 280 279 278
240 241 241 239 241 242 237 235 237 232 221 212 216 240 245 240 230 237 242 251 255 253 255 253 256 254 243 240 245 250 256 264 269 275 278 279 277 276 278 279 280 280 281 280
244 241 227 245 236 234 239 239 236 234 231 228 230 242 248 247 245 241 242 255 253 252 253 255 250 250 243 244 248 255 262 268 272 276 281 282 280 278 277 277 278 279 280 280
246 243 237 238 248 236 243 244 245 241 238 233 225 245 251 249 245 245 250 250 250 251 254 253 250 248 244 248 250 258 264 270 274 278 280 281 280 280 280 281 282 283 284 284
244 236 229 247 240 246 243 239 238 233 240 236 240 237 250 249 251 248 254 258 252 248 246 247 250 250 246 246 254 257 263 269 273 277 278 278 279 281 282 283 285 286 286 285
255 248 238 241 249 249 244 237 234 240 230 248 248 247 251 244 238 244 242 261 264 249 244 245 246 249 255 254 254 258 263 268 272 273 274 275 277 279 281 282 283 285 286 288
254 251 248 240 251 250 243 247 242 245 248 253 254 249 251 256 229 238 235 234 243 251 243 245 250 252 259 261 261 259 262 267 269 271 272 274 277 278 279 281 282 285 287 286
264 252 236 252 256 247 240 244 251 242 236 241 238 247 276 243 233 233 229 233 245 254 257 255 253 254 257 263 264 266 264 265 266 267 270 274 276 277 278 281 283 284 285 285
250 254 239 222 238 246 246 238 228 244 247 231 226 222 241 234 238 245 245 246 244 247 254 253 252 253 254 256 259 263 265 264 265 266 268 270 272 275 279 281 282 283 284 286
251 252 250 239 224 226 234 250 234 220 244 226 238 226 213 241 242 240 241 246 253 255 254 252 251 252 252 254 259 262 264 265 266 268 269 271 273 275 277 279 281 283 285 287
247 253 250 245 240 225 236 243 245 235 229 226 232 240 217 241 248 253 224 220 253 254 255 259 254 251 250 253 258 259 260 264 265 267 270 273 275 276 277 278 281 283 286 289
247 250 251 248 245 238 224 234 238 228 245 235 232 229 212 237 229 233 232 228 234 247 257 268 267 253 251 253 256 258 261 263 266 268 270 271 273 276 277 281 285 288 291 292
245 245 247 248 245 239 232 227 233 237 224 242 237 237 221 217 245 242 249 243 260 265 268 263 264 259 251 251 253 255 258 261 263 266 268 271 274 279 284 287 287 289 291 293
247 242 241 241 241 239 235 223 227 230 232 233 245 236 227 218 228 248 236 216 227 239 257 269 264 257 259 253 256 256 258 257 258 263 271 277 279 282 285 288 291 292 294 295
244 250 244 241 241 238 235 231 223 222 226 233 229 227 228 205 250 231 237 237 243 244 243 224 244 243 244 255 255 250 252 259 265 267 270 274 279 283 287 289 291 294 295 295
240 245 250 251 245 243 242 235 231 225 225 228 219 221 219 221 227 240 238 226 226 224 220 201 196 232 254 245 247 256 261 260 261 268 275 279 282 285 289 291 292 293 293 293
237 238 243 251 251 249 242 240 237 232 229 228 222 217 222 223 224 225 235 237 235 234 236 240 235 253 262 268 264 259 254 259 266 268 273 277 281 286 288 290 292 292 293 293
280 247 243 247 250 255 248 239 241 240 233 231 232 225 224 224 228 237 233 235 238 237 234 243 248 255 260 262 263 266 267 266 267 272 276 277 282 285 288 290 291 293 293 293
275 236 252 252 253 256 254 247 246 245 248 236 235 235 236 233 234 243 238 237 236 238 242 244 249 256 260 263 264 262 264 268 273 274 276 279 281 285 289 290 292 291 291 295
279 241 243 242 247 260 249 246 245 242 248 240 242 242 239 238 238 240 244 250 252 248 246 248 251 254 259 259 259 261 264 268 269 272 277 278 282 285 287 289 289 289 294 296
288 277 265 256 255 251 245 230 237 231 232 239 240 237 238 241 239 241 245 246 251 248 247 245 245 247 250 255 259 263 266 267 268 271 274 278 281 284 285 286 287 291 294 297
276 278 275 273 271 256 246 234 239 244 228 224 235 234 244 245 245 244 246 249 248 247 250 253 252 251 254 256 258 260 263 266 269 271 274 277 280 283 282 284 288 294 297 297
276 271 266 263 280 265 261 248 239 232 225 223 218 228 238 241 241 243 244 246 248 247 247 249 253 253 253 255 258 262 264 266 267 270 272 274 275 277 281 286 290 295 295 298
279 263 257 256 262 269 262 261 246 238 236 222 231 225 228 229 238 240 243 245 246 245 246 248 248 252 254 256 259 262 265 266 269 270 272 272 273 277 283 287 292 293 295 295
288 263 253 271 263 259 268 268 249 239 239 229 232 220 223 225 230 233 242 245 246 244 244 246 248 250 252 257 261 263 265 265 267 270 271 272 275 281 286 287 290 288 297 301
Height
5794 5797 5800 5805 5808 5813 5815 5818 5823 5825 5828 5835 5834 5836 5839 5847 5847 5843 5845 5851 5856 5857 5857 5859 5864 5867 5872 5874 5875 5878 5880 5881 5882 5883 5883 5883 5884 5884 5884 5885 5885 5884 5884 5884
5786 5789 5794 5796 5799 5804 5808 5811 5814 5821 5825 5828 5830 5829 5831 5836 5841 5843 5837 5843 5846 5847 5849 5849 5853 5858 5865 5867 5868 5872 5873 5874 5876 5876 5877 5877 5878 5878 5878 5879 5878 5877 5877 5877
5778 5784 5787 5788 5791 5795 5799 5803 5808 5810 5814 5819 5823 5821 5820 5826 5832 5834 5832 5834 5838 5840 5840 5842 5844 5850 5856 5858 5861 5863 5865 5866 5868 5870 5870 5871 5870 5872 5871 5871 5872 5870 5870 5870
5771 5776 5779 5781 5783 5787 5789 5795 5797 5800 5804 5807 5813 5809 5813 5820 5822 5824 5826 5825 5830 5832 5833 5834 5836 5840 5846 5849 5852 5854 5857 5858 5860 5862 5862 5862 5863 5863 5863 5863 5863 5863 5863 5862
5767 5768 5771 5772 5775 5777 5782 5785 5787 5791 5794 5797 5801 5803 5806 5809 5812 5816 5816 5817 5821 5825 5827 5826 5827 5832 5838 5839 5845 5847 5849 5852 5851 5853 5854 5853 5853 5854 5854 5854 5853 5853 5853 5853
5756 5760 5764 5765 5767 5768 5773 5775 5778 5779 5783 5781 5791 5794 5796 5802 5806 5808 5806 5807 5811 5815 5818 5819 5820 5821 5827 5832 5834 5841 5842 5842 5842 5843 5844 5845 5845 5844 5845 5845 5844 5844 5843 5842
5748 5750 5754 5756 5757 5761 5763 5765 5768 5769 5770 5772 5786 5784 5785 5795 5799 5799 5800 5798 5800 5805 5809 5811 5813 5815 5814 5821 5826 5831 5834 5833 5833 5836 5834 5835 5835 5835 5835 5835 5835 5835 5834 5833
5738 5740 5745 5748 5747 5754 5754 5756 5759 5760 5763 5767 5773 5770 5776 5785 5789 5789 5794 5792 5790 5792 5798 5804 5806 5807 5806 5807 5812 5820 5824 5825 5825 5825 5823 5824 5826 5825 5825 5825 5826 5825 5824 5823
5727 5728 5738 5742 5741 5743 5748 5744 5753 5752 5756 5760 5766 5771 5774 5775 5775 5776 5780 5781 5781 5782 5788 5794 5798 5799 5801 5796 5800 5803 5811 5814 5815 5814 5814 5816 5816 5815 5814 5814 5815 5815 5813 5812
5717 5716 5724 5731 5734 5733 5732 5741 5744 5744 5745 5748 5754 5761 5769 5766 5770 5767 5768 5771 5774 5775 5778 5784 5787 5789 5790 5789 5793 5793 5798 5803 5803 5804 5805 5805 5805 5805 5804 5805 5804 5802 5801 5801
5700 5703 5715 5716 5721 5725 5727 5724 5731 5734 5734 5737 5744 5750 5761 5756 5752 5756 5757 5758 5758 5761 5766 5768 5772 5777 5780 5776 5782 5785 5785 5790 5791 5792 5793 5794 5795 5795 5795 5794 5792 5791 5790 5789
5683 5690 5694 5702 5710 5715 5718 5719 5719 5722 5727 5728 5732 5737 5751 5742 5741 5745 5744 5745 5743 5748 5752 5755 5762 5766 5767 5767 5770 5776 5775 5777 5780 5782 5783 5783 5784 5785 5784 5783 5782 5780 5779 5777
5670 5671 5676 5684 5691 5697 5700 5704 5706 5709 5713 5715 5721 5727 5739 5739 5739 5735 5737 5736 5736 5737 5741 5743 5750 5754 5756 5758 5759 5762 5764 5766 5769 5771 5771 5772 5773 5773 5773 5773 5771 5769 5767 5765
5645 5653 5657 5662 5673 5679 5680 5686 5687 5690 5691 5699 5706 5715 5727 5732 5733 5727 5727 5732 5728 5730 5734 5737 5736 5741 5744 5746 5749 5753 5755 5756 5758 5759 5761 5762 5763 5762 5762 5762 5760 5759 5756 5754
5623 5631 5633 5639 5647 5656 5660 5665 5670 5677 5685 5683 5696 5702 5712 5721 5717 5704 5715 5717 5716 5718 5720 5725 5729 5729 5730 5736 5739 5741 5743 5746 5749 5750 5750 5750 5750 5751 5751 5750 5749 5747 5745 5742
5604 5605 5609 5617 5626 5631 5638 5647 5653 5659 5663 5667 5681 5686 5704 5713 5699 5702 5702 5706 5707 5706 5708 5710 5717 5717 5722 5725 5728 5731 5734 5736 5736 5739 5742 5742 5742 5741 5741 5740 5738 5735 5733 5729
5588 5586 5588 5594 5607 5609 5610 5634 5640 5644 5646 5654 5657 5665 5679 5684 5679 5683 5681 5686 5689 5692 5696 5697 5702 5704 5710 5716 5719 5722 5724 5726 5730 5730 5730 5731 5731 5730 5730 5728 5726 5723 5720 5716
5568 5571 5572 5573 5583 5576 5597 5611 5619 5623 5633 5638 5641 5648 5655 5663 5665 5669 5667 5671 5674 5683 5684 5686 5690 5696 5703 5707 5711 5713 5716 5717 5720 5721 5721 5721 5721 5720 5718 5716 5713 5710 5706 5701
5549 5553 5557 5558 5561 5566 5574 5588 5597 5605 5614 5622 5620 5628 5633 5641 5642 5658 5660 5655 5661 5665 5671 5679 5686 5693 5697 5698 5701 5704 5706 5707 5709 5709 5710 5710 5710 5709 5707 5704 5700 5696 5691 5686
5545 5544 5546 5548 5546 5547 5562 5574 5579 5584 5572 5597 5606 5616 5625 5625 5622 5641 5639 5634 5646 5657 5667 5672 5677 5682 5686 5689 5692 5693 5693 5696 5698 5698 5698 5700 5698 5696 5694 5690 5687 5681 5675 5672
5539 5539 5535 5537 5537 5538 5547 5553 5558 5554 5563 5580 5582 5587 5593 5595 5609 5618 5621 5621 5629 5645 5655 5661 5667 5672 5675 5676 5678 5680 5683 5685 5686 5686 5688 5687 5685 5683 5681 5678 5673 5667 5662 5657
5534 5531 5530 5529 5527 5526 5537 5537 5538 5540 5547 5554 5553 5564 5571 5576 5592 5604 5602 5607 5612 5627 5635 5644 5651 5655 5661 5663 5669 5670 5672 5672 5675 5676 5675 5675 5673 5671 5668 5664 5659 5654 5649 5644
5524 5523 5521 5521 5518 5519 5520 5524 5525 5528 5535 5539 5543 5550 5553 5569 5577 5583 5586 5585 5598 5612 5620 5626 5632 5641 5646 5651 5655 5657 5658 5662 5664 5663 5663 5662 5661 5659 5654 5650 5647 5642 5636 5630
5516 5514 5510 5509 5512 5511 5511 5511 5513 5517 5520 5526 5531 5537 5542 5549 5556 5563 5567 5574 5584 5596 5606 5613 5617 5623 5629 5636 5640 5642 5646 5649 5649 5651 5651 5651 5649 5646 5642 5639 5635 5631 5624 5618
5505 5501 5500 5499 5502 5499 5501 5501 5503 5506 5505 5515 5521 5527 5532 5537 5541 5545 5551 5559 5571 5579 5590 5599 5605 5608 5615 5622 5627 5630 5634 5636 5637 5639 5639 5639 5635 5633 5632 5628 5625 5619 5614 5607
5492 5489 5487 5488 5491 5487 5489 5490 5491 5495 5497 5503 5507 5514 5519 5523 5528 5534 5539 5548 5551 5564 5576 5585 5590 5595 5605 5611 5616 5619 5622 5624 5626 5627 5627 5626 5625 5623 5621 5618 5615 5609 5605 5600